Location: Seasalter
(51.3333°N, 1.0167°E)
Time: 09:44:25
(UTC+00:00)

Cosmos 1680 Rocket - Pass Details

Date: 26 September 2023
Orbit: 759 x 779 km, 74.1° (Epoch: 09 December)

Event Time Altitude Azimuth Distance (km) Brightness Sun altitude
Rises 04:01:06 0° 327° (NNW) 3,274 6.6 -17.2°
Reaches altitude 10° 04:03:48 10° 316° (NW) 2,342 5.8 -16.8°
Maximum altitude 04:08:11 27° 260° (W) 1,471 4.4 -16.1°
Enters shadow 04:08:58 26° 246° (WSW) 1,505 4.4 -16.0°
